User: anonymous   Login
Location: G�migny
(47.9646°N, 1.6950°E)
Time: 05:57:41
(UTC+00:00)
Language:

STARLINK-54 - Orbit

View from above orbital plane
View from above orbital plane
View from above satellite
View from above satellite

Ground track
Ground track

The orbit data is extracted from the following two-line orbital elements,

1 44266U 19029AH  19341.91667824  .00541547  00000-0  29225-1 0  9991
2 44266  52.9958   3.0129 0001664 128.9890 106.6571 15.12019157 29909
Epoch (UTC): 07 December 2019 22:00:01
Eccentricity: 0.0001664
inclination: 52.9958°
perigee height: 529 km
apogee height: 531 km
right ascension of ascending node: 3.0129°
argument of perigee: 128.9890°
revolutions per day: 15.12019157
mean anomaly at epoch: 106.6571°
orbit number at epoch: 2990

The dashed part of the orbit path shows where the satellite is in the earth's shadow,  

DLR